Location: Montreal
(45.5087°N, 73.5540°W)
Time: 18:58:04
(UTC-04:00)

Tiangong 1 - Visible Passes

Search period start: 20 August 2017 00:00
Search period end: 30 August 2017 00:00
Orbit: 312 x 337 km, 42.8° (Epoch: 20 August)

Date Brightness Start Highest point End Pass type
(mag) Time Alt. Az. Time Alt. Az. Time Alt. Az.
20 Aug 1.9 21:07:45 10° W 21:10:16 30° SSW 21:11:06 24° SSE visible
21 Aug 2.7 21:24:38 10° WSW 21:26:41 19° SSW 21:26:47 19° SSW visible
23 Aug 2.7 20:22:11 10° WSW 20:24:21 20° SSW 20:26:29 10° SSE visible
24 Aug 3.5 20:39:31 10° SW 20:40:26 11° SSW 20:41:22 10° S visible
